Mojave, CA

4:07 PM PST on December 08, 2019 (GMT -0800)
Mojave

Weather History for KMHV - October, 2019

Change the Weather History Date:

Monday, October 14, 2019

  Actual Average Record
Temperature  
Mean Temperature 62 °F -  
Max Temperature 77 °F 78 °F 97 °F (1971)
Min Temperature 48 °F 49 °F 35 °F (1966)
Degree Days  
Heating Degree Days 2    
Growing Degree Days 12 (Base 50)    
Moisture  
Dew Point 19 °F    
Average Humidity 19    
Maximum Humidity 30    
Minimum Humidity 9    
Precipitation  
Precipitation 0.00 in - - ()
Sea Level Pressure  
Sea Level Pressure 29.95 in    
Wind  
Wind Speed 8 mph (NNW)    
Max Wind Speed 13 mph    
Max Gust Speed 16 mph    
Visibility 10 miles    
Events      
Averages and records for this station are not official NWS values.
T = Trace of Precipitation, MM = Missing Value Source: NWS Daily Summary

Daily Weather History Graph

Daily Weather History Graph

Search for Another Location

Airport or City:

Astronomy

Oct. 14, 2019 Rise Set
Actual Time 6:57 AM PDT 6:19 PM PDT
Civil Twilight 6:32 AM PDT 6:44 PM PDT
Nautical Twilight 6:02 AM PDT 7:13 PM PDT
Astronomical Twilight 5:33 AM PDT 7:43 PM PDT
Moon 7:12 PM PDT (10/14) 7:34 AM PDT (10/14)
Length of Visible Light 12h 12m
Length of Day
11h 21m
Full, 99% of the Moon is Illuminated
Oct 14
Full
Oct 21
Last Quarter
Oct 27
New
Nov 4
First Quarter
Nov 12
Full

Hourly Weather History & Observations

Time (PDT) Temp. Dew Point Humidity Pressure Visibility Wind Dir Wind Speed Gust Speed Precip Events Conditions
12:00 AM 59.0 °F 19.4 °F 22% 29.89 in 10.0 mi SW 10.4 mph - N/A   Partly Cloudy
12:20 AM 57.2 °F 19.4 °F 23% 29.89 in 10.0 mi WSW 9.2 mph 15.0 mph N/A   Scattered Clouds
12:40 AM 59.0 °F 19.4 °F 22% 29.89 in 10.0 mi WSW 9.2 mph - N/A   Scattered Clouds
1:00 AM 57.2 °F 19.4 °F 23% 29.89 in 10.0 mi WSW 8.1 mph - N/A   Mostly Cloudy
1:20 AM 55.4 °F 19.4 °F 25% 29.89 in 10.0 mi WSW 10.4 mph - N/A   Mostly Cloudy
1:40 AM 55.4 °F 19.4 °F 25% 29.90 in 10.0 mi WSW 6.9 mph - N/A   Overcast
2:00 AM 57.2 °F 19.4 °F 23% 29.90 in 10.0 mi WNW 8.1 mph - N/A   Overcast
2:20 AM 60.8 °F 19.4 °F 20% 29.90 in 10.0 mi NW 6.9 mph - N/A   Mostly Cloudy
2:40 AM 60.8 °F 19.4 °F 20% 29.90 in 10.0 mi Variable 3.5 mph 11.5 mph N/A   Overcast
3:00 AM 60.8 °F 17.6 °F 19% 29.90 in 10.0 mi NW 5.8 mph - N/A   Mostly Cloudy
3:20 AM 60.8 °F 17.6 °F 19% 29.89 in 10.0 mi WNW 9.2 mph 16.1 mph N/A   Overcast
3:40 AM 59.0 °F 17.6 °F 20% 29.89 in 10.0 mi NW 6.9 mph - N/A   Mostly Cloudy
4:00 AM 55.4 °F 17.6 °F 23% 29.89 in 10.0 mi WNW 4.6 mph - N/A   Mostly Cloudy
4:40 AM 57.2 °F 17.6 °F 21% 29.90 in 10.0 mi WNW 8.1 mph - N/A   Partly Cloudy
5:00 AM 55.4 °F 17.6 °F 23% 29.90 in 10.0 mi Calm Calm - N/A   Scattered Clouds
5:20 AM 55.4 °F 17.6 °F 23% 29.90 in 10.0 mi West 6.9 mph - N/A   Partly Cloudy
5:40 AM 53.6 °F 17.6 °F 24% 29.91 in 10.0 mi NW 6.9 mph - N/A   Partly Cloudy
6:00 AM 51.8 °F 17.6 °F 26% 29.91 in 8.0 mi WNW 5.8 mph - N/A   Partly Cloudy
6:20 AM 48.2 °F 17.6 °F 30% 29.92 in 7.0 mi WNW 6.9 mph - N/A   Scattered Clouds
6:40 AM 51.8 °F 17.6 °F 26% 29.92 in 7.0 mi NW 5.8 mph - N/A   Partly Cloudy
7:00 AM 51.8 °F 17.6 °F 26% 29.93 in 8.0 mi NNW 5.8 mph - N/A   Clear
7:20 AM 51.8 °F 17.6 °F 26% 29.93 in 4.0 mi NW 8.1 mph - N/A   Haze
7:40 AM 55.4 °F 19.4 °F 25% 29.94 in 7.0 mi NNW 9.2 mph - N/A   Clear
8:00 AM 59.0 °F 19.4 °F 22% 29.95 in 8.0 mi NNW 6.9 mph - N/A   Clear
8:20 AM 62.6 °F 19.4 °F 19% 29.96 in 9.0 mi NNE 4.6 mph - N/A   Clear
8:40 AM 60.8 °F 19.4 °F 20% 29.97 in 10.0 mi NE 5.8 mph - N/A   Clear
9:00 AM 59.0 °F 19.4 °F 22% 29.97 in 10.0 mi NE 6.9 mph - N/A   Clear
9:20 AM 60.8 °F 21.2 °F 22% 29.98 in 9.0 mi Variable 3.5 mph - N/A   Clear
9:40 AM 60.8 °F 21.2 °F 22% 29.98 in 10.0 mi ENE 3.5 mph - N/A   Clear
10:00 AM 62.6 °F 21.2 °F 20% 29.98 in 10.0 mi Calm Calm - N/A   Clear
10:20 AM 64.4 °F 21.2 °F 19% 29.98 in 10.0 mi ENE 3.5 mph - N/A   Clear
10:40 AM 66.2 °F 21.2 °F 18% 29.98 in 10.0 mi Variable 3.5 mph - N/A   Clear
11:00 AM 68.0 °F 21.2 °F 17% 29.98 in 10.0 mi Variable 4.6 mph - N/A   Clear
11:20 AM 68.0 °F 21.2 °F 17% 29.98 in 10.0 mi Variable 3.5 mph - N/A   Clear
11:40 AM 69.8 °F 21.2 °F 16% 29.98 in 10.0 mi ENE 5.8 mph - N/A   Clear
12:00 PM 69.8 °F 21.2 °F 16% 29.98 in 10.0 mi Calm Calm - N/A   Clear
12:20 PM 71.6 °F 19.4 °F 14% 29.98 in 10.0 mi NE 9.2 mph - N/A   Clear
12:40 PM 73.4 °F 17.6 °F 12% 29.97 in 10.0 mi NE 9.2 mph - N/A   Clear
1:00 PM 73.4 °F 15.8 °F 11% 29.97 in 10.0 mi NE 8.1 mph 15.0 mph N/A   Clear
1:20 PM 75.2 °F 15.8 °F 11% 29.96 in 10.0 mi ENE 11.5 mph - N/A   Clear
1:40 PM 75.2 °F 15.8 °F 11% 29.96 in 10.0 mi ENE 6.9 mph 13.8 mph N/A   Clear
2:00 PM 75.2 °F 14.0 °F 10% 29.95 in 10.0 mi East 10.4 mph - N/A   Clear
2:20 PM 77.0 °F 15.8 °F 10% 29.95 in 10.0 mi ENE 12.7 mph - N/A   Clear
2:40 PM 75.2 °F 15.8 °F 11% 29.95 in 10.0 mi NE 6.9 mph 12.7 mph N/A   Clear
3:00 PM 75.2 °F 15.8 °F 11% 29.95 in 10.0 mi Variable 4.6 mph 12.7 mph N/A   Clear
3:20 PM 77.0 °F 14.0 °F 9% 29.95 in 10.0 mi NE 9.2 mph 15.0 mph N/A   Clear
3:40 PM 77.0 °F 14.0 °F 9% 29.95 in 10.0 mi NNE 12.7 mph - N/A   Clear
4:00 PM 77.0 °F 14.0 °F 9% 29.95 in 10.0 mi NNE 8.1 mph - N/A   Clear
4:20 PM 77.0 °F 14.0 °F 9% 29.95 in 10.0 mi East 5.8 mph 11.5 mph N/A   Clear
4:40 PM 77.0 °F 14.0 °F 9% 29.95 in 10.0 mi ENE 8.1 mph - N/A   Clear
5:00 PM 75.2 °F 14.0 °F 10% 29.95 in 10.0 mi SE 4.6 mph - N/A   Clear
5:20 PM 75.2 °F 15.8 °F 11% 29.95 in 10.0 mi Calm Calm - N/A   Clear
5:40 PM 75.2 °F 15.8 °F 11% 29.95 in 10.0 mi East 3.5 mph - N/A   Clear
6:00 PM 73.4 °F 15.8 °F 11% 29.95 in 10.0 mi SE 4.6 mph - N/A   Clear
6:20 PM 71.6 °F 21.2 °F 15% 29.96 in 10.0 mi Variable 5.8 mph - N/A   Clear
6:40 PM 68.0 °F 24.8 °F 20% 29.97 in 10.0 mi WNW 9.2 mph - N/A   Clear
7:00 PM 66.2 °F 24.8 °F 21% 29.97 in 10.0 mi WNW 10.4 mph - N/A   Clear
7:20 PM 66.2 °F 26.6 °F 23% 29.98 in 10.0 mi WNW 10.4 mph - N/A   Clear
7:40 PM 66.2 °F 26.6 °F 23% 29.98 in 10.0 mi WNW 12.7 mph - N/A   Clear
8:00 PM 64.4 °F 24.8 °F 22% 29.99 in 10.0 mi WNW 11.5 mph - N/A   Clear
8:20 PM 64.4 °F 24.8 °F 22% 30.00 in 10.0 mi West 9.2 mph - N/A   Clear
8:40 PM 64.4 °F 24.8 °F 22% 30.00 in 10.0 mi WNW 10.4 mph - N/A   Clear
9:00 PM 64.4 °F 24.8 °F 22% 30.01 in 10.0 mi WNW 9.2 mph - N/A   Clear
9:20 PM 62.6 °F 24.8 °F 24% 30.02 in 10.0 mi WNW 9.2 mph - N/A   Clear
9:40 PM 62.6 °F 24.8 °F 24% 30.02 in 10.0 mi NW 9.2 mph - N/A   Clear
10:00 PM 60.8 °F 24.8 °F 25% 30.02 in 10.0 mi NW 8.1 mph - N/A   Clear
10:20 PM 60.8 °F 24.8 °F 25% 30.03 in 10.0 mi NW 9.2 mph - N/A   Clear
10:40 PM 60.8 °F 23.0 °F 23% 30.03 in 10.0 mi NW 10.4 mph - N/A   Clear
11:00 PM 60.8 °F 23.0 °F 23% 30.03 in 10.0 mi NW 10.4 mph - N/A   Clear
11:20 PM 60.8 °F 23.0 °F 23% 30.03 in 10.0 mi NW 10.4 mph - N/A   Clear
11:40 PM 57.2 °F 21.2 °F 25% 30.03 in 10.0 mi NW 10.4 mph - N/A   Partly Cloudy